Weather History for Tehachapi, CA

Change the Weather History Date:

Wednesday, October 5, 2011

  Actual Average Record
Temperature  
Mean Temperature 50 °F -  
Max Temperature 57 °F 76 °F 71 °F (2013)
Min Temperature 42 °F 44 °F 42 °F (2011)
Degree Days  
Heating Degree Days 16    
Moisture  
Dew Point 42 °F    
Average Humidity 78    
Maximum Humidity 100    
Minimum Humidity 54    
Precipitation  
Precipitation 1.11 in - - ()
Sea Level Pressure  
Sea Level Pressure 29.85 in    
Wind  
Wind Speed 10 mph (West)    
Max Wind Speed 26 mph    
Max Gust Speed 36 mph    
Visibility 7 miles    
Events Rain    
Averages and records for this station are not official NWS values.
T = Trace of Precipitation, MM = Missing Value Source: NWS Daily Summary

Daily Weather History Graph

Daily Weather History Graph

Search for Another Location

Airport:

Trip Planner

Search our weather history database for the weather conditions in past years. The results will help you decide how hot, cold, wet, or windy it might be!

Date:

Astronomy

Oct. 05, 2011 Rise Set
Actual Time 6:51 AM PDT 6:32 PM PDT
Civil Twilight 6:26 AM PDT 6:57 PM PDT
Nautical Twilight 5:56 AM PDT 7:26 PM PDT
Astronomical Twilight 5:27 AM PDT 7:56 PM PDT
Moon 3:03 PM PDT (10/5) 12:56 AM PDT (10/5)
Length of Visible Light 12h 31m
Length of Day
11h 40m
Waxing Gibbous, 67% of the Moon is Illuminated
Oct 5
Waxing Gibbous
Oct 11
Full
Oct 19
Last Quarter
Oct 26
New
Nov 2
First Quarter

Hourly Weather History & Observations

Time (PDT) Temp. Windchill Dew Point Humidity Pressure Visibility Wind Dir Wind Speed Gust Speed Precip Events Conditions
12:15 AM 50.0 °F - 44.6 °F 82% 29.94 in 10.0 mi WNW 9.2 mph - N/A   Mostly Cloudy
12:35 AM 48.2 °F - 44.6 °F 87% 29.93 in 10.0 mi WNW 8.1 mph - N/A   Mostly Cloudy
1:15 AM 48.2 °F - 42.8 °F 82% 29.92 in 10.0 mi WNW 8.1 mph - N/A   Clear
1:35 AM 46.4 °F 42.9 °F 41.0 °F 81% 29.92 in 10.0 mi West 6.9 mph - N/A   Clear
1:55 AM 46.4 °F 42.4 °F 41.0 °F 81% 29.91 in 10.0 mi West 8.1 mph - N/A   Clear
2:15 AM 48.2 °F - 41.0 °F 76% 29.90 in 10.0 mi West 5.8 mph - N/A   Clear
2:35 AM 50.0 °F - 35.6 °F 58% 29.89 in 10.0 mi NW 9.2 mph - N/A   Clear
2:55 AM 50.0 °F - 37.4 °F 62% 29.89 in 10.0 mi NW 5.8 mph - N/A   Clear
3:15 AM 51.8 °F - 35.6 °F 54% 29.88 in 10.0 mi West 5.8 mph - N/A   Clear
3:35 AM 50.0 °F - 39.2 °F 66% 29.87 in 10.0 mi SW 4.6 mph - N/A   Clear
3:55 AM 50.0 °F - 37.4 °F 62% 29.85 in 10.0 mi SW 4.6 mph - N/A   Clear
4:15 AM 51.8 °F - 39.2 °F 62% 29.84 in 10.0 mi WSW 5.8 mph - N/A   Clear
4:35 AM 51.8 °F - 41.0 °F 67% 29.85 in 10.0 mi West 4.6 mph - N/A   Clear
4:55 AM 51.8 °F - 41.0 °F 67% 29.84 in 10.0 mi NW 5.8 mph - N/A   Clear
5:15 AM 50.0 °F - 41.0 °F 71% 29.84 in 10.0 mi Calm Calm - N/A   Clear
5:35 AM 50.0 °F - 41.0 °F 71% 29.82 in 10.0 mi Calm Calm - N/A   Clear
5:55 AM 50.0 °F - 41.0 °F 71% 29.82 in 10.0 mi Calm Calm - N/A   Clear
6:15 AM 50.0 °F - 41.0 °F 71% 29.82 in 10.0 mi ESE 4.6 mph - N/A   Clear
6:35 AM 50.0 °F - 41.0 °F 71% 29.81 in 10.0 mi ENE 5.8 mph - N/A   Clear
7:15 AM 55.4 °F - 41.0 °F 58% 29.81 in 9.0 mi WSW 8.1 mph - N/A   Clear
7:35 AM 57.2 °F - 41.0 °F 55% 29.81 in 9.0 mi WSW 13.8 mph 27.6 mph N/A   Clear
7:55 AM 55.4 °F - 41.0 °F 58% 29.81 in 10.0 mi SW 17.3 mph 24.2 mph N/A   Clear
8:15 AM 57.2 °F - 41.0 °F 55% 29.81 in 10.0 mi SW 16.1 mph 23.0 mph N/A   Clear
8:55 AM 55.4 °F - 44.6 °F 67% 29.83 in 3.0 mi SW 13.8 mph 29.9 mph N/A   Haze
9:15 AM 53.6 °F - 46.4 °F 77% 29.82 in 3.0 mi WSW 11.5 mph 24.2 mph N/A Rain Light Rain
9:35 AM 53.6 °F - 44.6 °F 72% 29.82 in 9.0 mi WSW 20.7 mph 27.6 mph N/A Rain Light Rain
9:55 AM 53.6 °F - 46.4 °F 77% 29.83 in 1.8 mi SW 15.0 mph 25.3 mph N/A Rain Light Rain
10:15 AM 51.8 °F - 48.2 °F 88% 29.84 in 1.0 mi WSW 5.8 mph - 0.02 in Rain Light Rain
10:35 AM 51.8 °F - 48.2 °F 88% 29.83 in 1.0 mi West 13.8 mph 23.0 mph 0.09 in Rain Rain
10:55 AM 50.0 °F - 48.2 °F 94% 29.83 in 0.8 mi West 18.4 mph 25.3 mph 0.19 in Rain Rain
11:15 AM 50.0 °F - 48.2 °F 94% 29.83 in 1.0 mi West 19.6 mph 25.3 mph 0.07 in Rain Rain
11:35 AM 50.0 °F - 48.2 °F 94% - 0.8 mi North - - 0.15 in Rain Light Rain
12:35 PM 46.4 °F 37.7 °F 44.6 °F 93% 29.86 in 1.0 mi NW 26.5 mph 33.4 mph 0.26 in Rain Heavy Rain
12:55 PM 42.8 °F 34.8 °F 42.8 °F 100% 29.87 in 1.0 mi NW 17.3 mph 28.8 mph 0.43 in Rain Heavy Rain
1:15 PM 44.6 °F 37.2 °F 42.8 °F 93% 29.86 in 1.2 mi NW 17.3 mph 23.0 mph 0.03 in Rain Rain
1:35 PM 44.6 °F 36.6 °F 42.8 °F 93% 29.87 in 0.8 mi NW 19.6 mph 25.3 mph 0.10 in Rain Rain
1:55 PM 42.8 °F 34.3 °F 42.8 °F 100% 29.86 in 1.2 mi NW 19.6 mph 25.3 mph 0.25 in Rain Heavy Rain
2:15 PM 44.6 °F 37.8 °F 42.8 °F 93% 29.86 in 1.5 mi WNW 15.0 mph 23.0 mph 0.03 in Rain Light Rain
2:35 PM 44.6 °F 37.2 °F 42.8 °F 93% 29.85 in 1.5 mi NW 17.3 mph - 0.08 in Rain Light Rain
2:55 PM 44.6 °F 38.1 °F 44.6 °F 100% 29.83 in 5.0 mi NW 13.8 mph 19.6 mph 0.09 in Rain Light Rain
3:15 PM 44.6 °F 37.2 °F 42.8 °F 93% 29.83 in 8.0 mi NW 17.3 mph 21.9 mph N/A   Clear
3:35 PM 44.6 °F 37.4 °F 41.0 °F 87% 29.82 in 8.0 mi NW 16.1 mph 21.9 mph N/A   Clear
3:55 PM 44.6 °F 37.8 °F 41.0 °F 87% 29.81 in 9.0 mi NW 15.0 mph 20.7 mph N/A   Partly Cloudy
4:15 PM 44.6 °F 37.8 °F 41.0 °F 87% 29.81 in 5.0 mi NW 15.0 mph 24.2 mph N/A   Partly Cloudy
4:35 PM 44.6 °F 37.2 °F 37.4 °F 76% 29.80 in 5.0 mi West 17.3 mph 35.7 mph N/A Rain Light Rain
4:55 PM 46.4 °F 40.7 °F 39.2 °F 76% 29.80 in 8.0 mi West 12.7 mph 17.3 mph N/A   Clear
5:15 PM 46.4 °F 40.4 °F 41.0 °F 81% 29.80 in 8.0 mi West 13.8 mph 20.7 mph N/A   Partly Cloudy
5:35 PM 46.4 °F 40.4 °F 41.0 °F 81% 29.80 in 8.0 mi West 13.8 mph 23.0 mph N/A   Clear
5:55 PM 46.4 °F 39.5 °F 41.0 °F 81% 29.79 in 8.0 mi West 17.3 mph 24.2 mph N/A   Clear
6:15 PM 42.8 °F 33.8 °F 39.2 °F 87% 29.81 in 1.5 mi NW 21.9 mph 31.1 mph 0.05 in Rain Rain
6:35 PM 41.0 °F 32.8 °F 39.2 °F 93% 29.82 in 1.8 mi NW 16.1 mph 25.3 mph 0.18 in Rain Light Rain
6:55 PM 41.0 °F 33.9 °F 41.0 °F 100% 29.82 in 2.5 mi WNW 12.7 mph - 0.22 in Rain Light Rain
7:15 PM 41.0 °F 34.3 °F 41.0 °F 100% 29.82 in 8.0 mi WNW 11.5 mph 16.1 mph N/A   Clear
7:35 PM 41.0 °F 34.3 °F 41.0 °F 100% 29.82 in 9.0 mi NW 11.5 mph - N/A   Clear
7:55 PM 41.0 °F 33.1 °F 41.0 °F 100% 29.82 in 9.0 mi NW 15.0 mph - N/A   Clear
8:15 PM 41.0 °F 34.3 °F 39.2 °F 93% 29.82 in 9.0 mi NW 11.5 mph - N/A   Clear
8:55 PM 41.0 °F 32.2 °F 39.2 °F 93% 29.85 in 10.0 mi WNW 18.4 mph 21.9 mph N/A Rain Light Rain
9:15 PM 41.0 °F 31.1 °F 39.2 °F 93% 29.85 in 5.0 mi NW 23.0 mph 31.1 mph 0.01 in Rain Light Rain
9:35 PM 39.2 °F 31.2 °F 39.2 °F 100% 29.85 in 4.0 mi NW 13.8 mph 19.6 mph 0.07 in Rain Light Rain
10:15 PM 41.0 °F 32.5 °F 39.2 °F 93% 29.86 in 8.0 mi WNW 17.3 mph 26.5 mph N/A   Clear
10:35 PM 39.2 °F 30.2 °F 39.2 °F 100% 29.86 in 4.0 mi NNW 17.3 mph 25.3 mph 0.01 in Rain Light Rain
10:55 PM 39.2 °F 29.8 °F 37.4 °F 93% 29.87 in 1.5 mi WNW 18.4 mph 23.0 mph 0.12 in Rain Rain
11:15 PM 39.2 °F 30.8 °F 37.4 °F 93% 29.86 in 2.5 mi WNW 15.0 mph 26.5 mph 0.08 in Rain Rain
11:35 PM 39.2 °F 30.2 °F 37.4 °F 93% 29.87 in 1.2 mi NW 17.3 mph 27.6 mph 0.19 in Rain Heavy Rain
11:55 PM 39.2 °F 30.8 °F 37.4 °F 93% 29.87 in 3.0 mi WNW 15.0 mph - 0.27 in Rain Light Rain